Time,TemperatureF,DewpointF,PressureIn,WindDirection,WindDirectionDegrees,WindSpeedMPH,WindSpeedGustMPH,Humidity,HourlyPrecipIn,Conditions,Clouds,dailyrainin,SoftwareType,DateUTC
2013-02-23 00:01:00,37.0,23.0,-100.00,ENE,78,7.0,9.0,57,-99.99,,,-99.99,,2013-02-23 08:01:00,
2013-02-23 00:11:00,37.0,23.0,-100.00,East,81,8.0,10.0,57,-99.99,,,-99.99,,2013-02-23 08:11:00,
2013-02-23 00:21:00,37.0,23.0,-100.00,East,79,8.0,10.0,56,-99.99,,,-99.99,,2013-02-23 08:21:00,
2013-02-23 00:31:00,37.0,22.0,-100.00,East,86,8.0,10.0,54,-99.99,,,-99.99,,2013-02-23 08:31:00,
2013-02-23 00:41:00,38.0,22.0,-100.00,East,84,8.0,10.0,52,-99.99,,,-99.99,,2013-02-23 08:41:00,
2013-02-23 00:52:00,38.0,22.0,-100.00,East,83,8.0,10.0,51,-99.99,,,-99.99,,2013-02-23 08:52:00,
2013-02-23 01:01:00,38.0,21.0,-100.00,East,81,6.0,8.0,50,-99.99,,,-99.99,,2013-02-23 09:01:00,
2013-02-23 01:11:00,38.0,21.0,-100.00,East,82,7.0,8.0,50,-99.99,,,-99.99,,2013-02-23 09:11:00,
2013-02-23 01:21:00,38.0,21.0,-100.00,East,83,7.0,8.0,49,-99.99,,,-99.99,,2013-02-23 09:21:00,
2013-02-23 01:31:00,38.0,21.0,-100.00,East,83,7.0,10.0,49,-99.99,,,-99.99,,2013-02-23 09:31:00,
2013-02-23 01:41:00,38.0,21.0,-100.00,East,85,8.0,10.0,50,-99.99,,,-99.99,,2013-02-23 09:41:00,
2013-02-23 01:51:00,39.0,21.0,-100.00,ENE,78,6.0,8.0,48,-99.99,,,-99.99,,2013-02-23 09:51:00,
2013-02-23 02:01:00,38.0,21.0,-100.00,East,81,5.0,7.0,50,-99.99,,,-99.99,,2013-02-23 10:01:00,
2013-02-23 02:11:00,37.0,21.0,-100.00,East,84,5.0,8.0,53,-99.99,,,-99.99,,2013-02-23 10:11:00,
2013-02-23 02:21:00,37.0,21.0,-100.00,East,79,6.0,8.0,52,-99.99,,,-99.99,,2013-02-23 10:21:00,
2013-02-23 02:31:00,38.0,22.0,-100.00,East,85,9.0,11.0,51,-99.99,,,-99.99,,2013-02-23 10:31:00,
2013-02-23 02:41:00,38.0,21.0,-100.00,East,84,8.0,10.0,50,-99.99,,,-99.99,,2013-02-23 10:41:00,
2013-02-23 02:51:00,39.0,21.0,-100.00,ENE,76,7.0,9.0,48,-99.99,,,-99.99,,2013-02-23 10:51:00,
2013-02-23 03:02:00,38.0,21.0,-100.00,East,81,7.0,8.0,49,-99.99,,,-99.99,,2013-02-23 11:02:00,
2013-02-23 03:11:00,39.0,21.0,-100.00,East,80,6.0,7.0,48,-99.99,,,-99.99,,2013-02-23 11:11:00,
2013-02-23 03:21:00,38.0,21.0,-100.00,East,84,5.0,8.0,49,-99.99,,,-99.99,,2013-02-23 11:21:00,
2013-02-23 03:32:00,38.0,21.0,-100.00,East,81,8.0,10.0,50,-99.99,,,-99.99,,2013-02-23 11:32:00,
2013-02-23 03:41:00,38.0,21.0,-100.00,East,83,8.0,9.0,49,-99.99,,,-99.99,,2013-02-23 11:41:00,
2013-02-23 03:52:00,38.0,20.0,-100.00,East,80,8.0,9.0,48,-99.99,,,-99.99,,2013-02-23 11:52:00,
2013-02-23 04:01:00,38.0,21.0,-100.00,ENE,76,7.0,9.0,50,-99.99,,,-99.99,,2013-02-23 12:01:00,
2013-02-23 04:11:00,38.0,21.0,-100.00,ENE,78,6.0,8.0,50,-99.99,,,-99.99,,2013-02-23 12:11:00,
2013-02-23 04:21:00,37.0,21.0,-100.00,East,80,5.0,8.0,51,-99.99,,,-99.99,,2013-02-23 12:21:00,
2013-02-23 04:32:00,37.0,21.0,-100.00,East,79,4.0,6.0,52,-99.99,,,-99.99,,2013-02-23 12:32:00,
2013-02-23 04:42:00,37.0,21.0,-100.00,ENE,78,4.0,6.0,52,-99.99,,,-99.99,,2013-02-23 12:42:00,
2013-02-23 04:52:00,37.0,21.0,-100.00,East,79,4.0,5.0,53,-99.99,,,-99.99,,2013-02-23 12:52:00,
2013-02-23 05:01:00,38.0,22.0,-100.00,East,81,4.0,5.0,51,-99.99,,,-99.99,,2013-02-23 13:01:00,
2013-02-23 05:11:00,36.0,21.0,-100.00,East,87,4.0,6.0,54,-99.99,,,-99.99,,2013-02-23 13:11:00,
2013-02-23 05:22:00,37.0,22.0,-100.00,East,88,5.0,6.0,55,-99.99,,,-99.99,,2013-02-23 13:22:00,
2013-02-23 05:31:00,37.0,23.0,-100.00,East,81,5.0,6.0,56,-99.99,,,-99.99,,2013-02-23 13:31:00,
2013-02-23 05:42:00,38.0,23.0,-100.00,East,79,4.0,5.0,54,-99.99,,,-99.99,,2013-02-23 13:42:00,
2013-02-23 05:52:00,37.0,22.0,-100.00,East,80,4.0,5.0,54,-99.99,,,-99.99,,2013-02-23 13:52:00,
2013-02-23 06:01:00,38.0,23.0,-100.00,East,80,4.0,6.0,54,-99.99,,,-99.99,,2013-02-23 14:01:00,
2013-02-23 06:11:00,37.0,24.0,-100.00,East,84,5.0,6.0,58,-99.99,,,-99.99,,2013-02-23 14:11:00,
2013-02-23 06:21:00,38.0,25.0,-100.00,East,79,5.0,6.0,59,-99.99,,,-99.99,,2013-02-23 14:21:00,
2013-02-23 06:32:00,38.0,24.0,-100.00,East,81,6.0,8.0,56,-99.99,,,-99.99,,2013-02-23 14:32:00,
2013-02-23 06:41:00,38.0,25.0,-100.00,East,84,7.0,9.0,58,-99.99,,,-99.99,,2013-02-23 14:41:00,
2013-02-23 06:52:00,38.0,24.0,-100.00,ENE,76,7.0,9.0,57,-99.99,,,-99.99,,2013-02-23 14:52:00,
2013-02-23 07:01:00,38.0,24.0,-100.00,ENE,76,7.0,9.0,57,-99.99,,,-99.99,,2013-02-23 15:01:00,
2013-02-23 07:11:00,37.0,24.0,-100.00,East,86,5.0,6.0,60,-99.99,,,-99.99,,2013-02-23 15:11:00,
2013-02-23 07:21:00,37.0,25.0,-100.00,East,86,4.0,6.0,61,-99.99,,,-99.99,,2013-02-23 15:21:00,
2013-02-23 07:31:00,38.0,25.0,-100.00,East,83,5.0,6.0,60,-99.99,,,-99.99,,2013-02-23 15:31:00,
2013-02-23 07:41:00,40.0,25.0,-100.00,East,86,5.0,6.0,55,-99.99,,,-99.99,,2013-02-23 15:41:00,
2013-02-23 07:51:00,40.0,25.0,-100.00,East,87,5.0,6.0,55,-99.99,,,-99.99,,2013-02-23 15:51:00,
2013-02-23 08:01:00,40.0,25.0,-100.00,East,80,4.0,7.0,54,-99.99,,,-99.99,,2013-02-23 16:01:00,
2013-02-23 08:11:00,42.0,25.0,-100.00,East,92,2.0,3.0,51,-99.99,,,-99.99,,2013-02-23 16:11:00,
2013-02-23 08:21:00,43.0,24.0,-100.00,SW,235,0.0,1.0,47,-99.99,,,-99.99,,2013-02-23 16:21:00,
2013-02-23 08:31:00,43.0,24.0,-100.00,SW,235,0.0,1.0,47,-99.99,,,-99.99,,2013-02-23 16:31:00,
2013-02-23 08:42:00,45.0,23.0,-100.00,West,259,4.0,7.0,42,-99.99,,,-99.99,,2013-02-23 16:42:00,
2013-02-23 08:51:00,45.0,25.0,-100.00,West,269,6.0,10.0,45,-99.99,,,-99.99,,2013-02-23 16:51:00,
2013-02-23 09:01:00,44.0,25.0,-100.00,West,272,8.0,12.0,47,-99.99,,,-99.99,,2013-02-23 17:01:00,
2013-02-23 09:11:00,45.0,24.0,-100.00,West,269,7.0,12.0,44,-99.99,,,-99.99,,2013-02-23 17:11:00,
2013-02-23 09:21:00,45.0,25.0,-100.00,West,265,7.0,12.0,45,-99.99,,,-99.99,,2013-02-23 17:21:00,
2013-02-23 09:31:00,46.0,26.0,-100.00,West,261,8.0,13.0,46,-99.99,,,-99.99,,2013-02-23 17:31:00,
2013-02-23 09:41:00,47.0,27.0,-100.00,West,267,8.0,13.0,46,-99.99,,,-99.99,,2013-02-23 17:41:00,
2013-02-23 09:52:00,47.0,25.0,-100.00,West,272,11.0,17.0,42,-99.99,,,-99.99,,2013-02-23 17:52:00,
2013-02-23 10:01:00,47.0,25.0,-100.00,West,267,10.0,15.0,41,-99.99,,,-99.99,,2013-02-23 18:01:00,
2013-02-23 10:12:00,48.0,24.0,-100.00,WNW,285,10.0,15.0,39,-99.99,,,-99.99,,2013-02-23 18:12:00,
2013-02-23 10:21:00,48.0,23.0,-100.00,WNW,290,9.0,18.0,37,-99.99,,,-99.99,,2013-02-23 18:21:00,
2013-02-23 10:31:00,49.0,22.0,-100.00,WNW,289,15.0,21.0,34,-99.99,,,-99.99,,2013-02-23 18:31:00,
2013-02-23 10:41:00,49.0,25.0,-100.00,West,278,15.0,22.0,38,-99.99,,,-99.99,,2013-02-23 18:41:00,
2013-02-23 10:51:00,49.0,23.0,-100.00,West,273,15.0,23.0,36,-99.99,,,-99.99,,2013-02-23 18:51:00,
2013-02-23 11:01:00,49.0,23.0,-100.00,West,275,14.0,22.0,35,-99.99,,,-99.99,,2013-02-23 19:01:00,
2013-02-23 11:11:00,50.0,23.0,-100.00,West,267,9.0,15.0,35,-99.99,,,-99.99,,2013-02-23 19:11:00,
2013-02-23 11:21:00,51.0,23.0,-100.00,WSW,256,7.0,10.0,33,-99.99,,,-99.99,,2013-02-23 19:21:00,
2013-02-23 11:32:00,51.0,23.0,-100.00,West,259,6.0,9.0,33,-99.99,,,-99.99,,2013-02-23 19:32:00,
2013-02-23 11:41:00,52.0,22.0,-100.00,WSW,252,7.0,12.0,31,-99.99,,,-99.99,,2013-02-23 19:41:00,
2013-02-23 11:51:00,52.0,22.0,-100.00,West,262,7.0,12.0,31,-99.99,,,-99.99,,2013-02-23 19:51:00,
2013-02-23 12:01:00,52.0,22.0,-100.00,West,266,9.0,13.0,30,-99.99,,,-99.99,,2013-02-23 20:01:00,
2013-02-23 12:11:00,52.0,22.0,-100.00,West,271,10.0,17.0,30,-99.99,,,-99.99,,2013-02-23 20:11:00,
2013-02-23 12:21:00,52.0,22.0,-100.00,West,267,10.0,14.0,31,-99.99,,,-99.99,,2013-02-23 20:21:00,
2013-02-23 12:31:00,52.0,23.0,-100.00,West,271,8.0,14.0,32,-99.99,,,-99.99,,2013-02-23 20:31:00,
2013-02-23 12:41:00,52.0,23.0,-100.00,West,275,10.0,15.0,32,-99.99,,,-99.99,,2013-02-23 20:41:00,
2013-02-23 12:52:00,52.0,24.0,-100.00,West,273,9.0,14.0,33,-99.99,,,-99.99,,2013-02-23 20:52:00,
2013-02-23 13:01:00,52.0,25.0,-100.00,West,277,8.0,15.0,34,-99.99,,,-99.99,,2013-02-23 21:01:00,
2013-02-23 13:11:00,53.0,25.0,-100.00,West,281,8.0,16.0,34,-99.99,,,-99.99,,2013-02-23 21:11:00,
2013-02-23 13:22:00,53.0,24.0,-100.00,WSW,258,9.0,15.0,32,-99.99,,,-99.99,,2013-02-23 21:22:00,
2013-02-23 13:31:00,52.0,22.0,-100.00,SW,233,10.0,18.0,31,-99.99,,,-99.99,,2013-02-23 21:31:00,
2013-02-23 13:41:00,51.0,22.0,-100.00,SW,233,11.0,16.0,32,-99.99,,,-99.99,,2013-02-23 21:41:00,
2013-02-23 13:51:00,52.0,24.0,-100.00,WSW,251,9.0,16.0,33,-99.99,,,-99.99,,2013-02-23 21:51:00,
2013-02-23 14:01:00,51.0,23.0,-100.00,WSW,240,11.0,18.0,33,-99.99,,,-99.99,,2013-02-23 22:01:00,
2013-02-23 14:11:00,52.0,25.0,-100.00,West,268,10.0,18.0,34,-99.99,,,-99.99,,2013-02-23 22:11:00,
2013-02-23 14:21:00,52.0,25.0,-100.00,West,271,12.0,19.0,34,-99.99,,,-99.99,,2013-02-23 22:21:00,
2013-02-23 14:31:00,51.0,24.0,-100.00,WSW,257,11.0,17.0,34,-99.99,,,-99.99,,2013-02-23 22:31:00,
2013-02-23 14:41:00,52.0,25.0,-100.00,West,273,10.0,18.0,35,-99.99,,,-99.99,,2013-02-23 22:41:00,
2013-02-23 14:51:00,52.0,26.0,-100.00,West,264,11.0,17.0,36,-99.99,,,-99.99,,2013-02-23 22:51:00,
2013-02-23 15:01:00,51.0,26.0,-100.00,West,276,13.0,22.0,38,-99.99,,,-99.99,,2013-02-23 23:01:00,
2013-02-23 15:11:00,51.0,27.0,-100.00,WSW,258,11.0,16.0,39,-99.99,,,-99.99,,2013-02-23 23:11:00,
2013-02-23 15:21:00,51.0,26.0,-100.00,West,268,11.0,19.0,38,-99.99,,,-99.99,,2013-02-23 23:21:00,
2013-02-23 15:31:00,50.0,28.0,-100.00,WSW,243,12.0,19.0,42,-99.99,,,-99.99,,2013-02-23 23:31:00,
2013-02-23 15:41:00,50.0,29.0,-100.00,WSW,251,12.0,17.0,45,-99.99,,,-99.99,,2013-02-23 23:41:00,
2013-02-23 15:52:00,49.0,31.0,-100.00,WSW,238,14.0,21.0,50,-99.99,,,-99.99,,2013-02-23 23:52:00,
2013-02-23 16:01:00,49.0,32.0,-100.00,WSW,246,13.0,20.0,51,-99.99,,,-99.99,,2013-02-24 00:01:00,
2013-02-23 16:11:00,49.0,31.0,-100.00,WSW,242,13.0,19.0,50,-99.99,,,-99.99,,2013-02-24 00:11:00,
2013-02-23 16:22:00,49.0,31.0,-100.00,WSW,240,12.0,19.0,49,-99.99,,,-99.99,,2013-02-24 00:22:00,
2013-02-23 16:31:00,49.0,30.0,-100.00,WSW,243,12.0,19.0,47,-99.99,,,-99.99,,2013-02-24 00:31:00,
2013-02-23 16:42:00,48.0,28.0,-100.00,WSW,243,13.0,18.0,46,-99.99,,,-99.99,,2013-02-24 00:42:00,
2013-02-23 16:52:00,48.0,28.0,-100.00,WSW,246,11.0,18.0,45,-99.99,,,-99.99,,2013-02-24 00:52:00,
2013-02-23 17:01:00,48.0,28.0,-100.00,WSW,243,12.0,17.0,45,-99.99,,,-99.99,,2013-02-24 01:01:00,
2013-02-23 17:11:00,48.0,28.0,-100.00,WSW,248,12.0,17.0,45,-99.99,,,-99.99,,2013-02-24 01:11:00,
2013-02-23 17:22:00,48.0,27.0,-100.00,WSW,247,11.0,15.0,44,-99.99,,,-99.99,,2013-02-24 01:22:00,
2013-02-23 17:31:00,47.0,27.0,-100.00,WSW,244,10.0,15.0,46,-99.99,,,-99.99,,2013-02-24 01:31:00,
2013-02-23 17:41:00,46.0,28.0,-100.00,WSW,242,12.0,16.0,49,-99.99,,,-99.99,,2013-02-24 01:41:00,
2013-02-23 17:51:00,46.0,30.0,-100.00,WSW,243,12.0,16.0,53,-99.99,,,-99.99,,2013-02-24 01:51:00,
2013-02-23 18:01:00,45.0,30.0,-100.00,WSW,241,12.0,16.0,56,-99.99,,,-99.99,,2013-02-24 02:01:00,
2013-02-23 18:11:00,44.0,30.0,-100.00,WSW,244,10.0,14.0,58,-99.99,,,-99.99,,2013-02-24 02:11:00,
2013-02-23 18:21:00,43.0,30.0,-100.00,WSW,258,6.0,9.0,60,-99.99,,,-99.99,,2013-02-24 02:21:00,
2013-02-23 18:31:00,42.0,30.0,-100.00,WSW,242,9.0,12.0,61,-99.99,,,-99.99,,2013-02-24 02:31:00,
2013-02-23 18:41:00,41.0,29.0,-100.00,WSW,251,8.0,13.0,61,-99.99,,,-99.99,,2013-02-24 02:41:00,
2013-02-23 18:52:00,40.0,27.0,-100.00,WSW,253,5.0,10.0,60,-99.99,,,-99.99,,2013-02-24 02:52:00,
2013-02-23 19:01:00,40.0,27.0,-100.00,WSW,244,5.0,9.0,60,-99.99,,,-99.99,,2013-02-24 03:01:00,
2013-02-23 19:11:00,40.0,27.0,-100.00,WSW,241,6.0,9.0,60,-99.99,,,-99.99,,2013-02-24 03:11:00,
2013-02-23 19:21:00,40.0,28.0,-100.00,SW,222,3.0,5.0,62,-99.99,,,-99.99,,2013-02-24 03:21:00,
2013-02-23 19:31:00,38.0,28.0,-100.00,ESE,107,2.0,2.0,67,-99.99,,,-99.99,,2013-02-24 03:31:00,
2013-02-23 19:42:00,38.0,27.0,-100.00,WSW,257,1.0,3.0,64,-99.99,,,-99.99,,2013-02-24 03:42:00,
2013-02-23 19:52:00,38.0,27.0,-100.00,East,91,1.0,4.0,65,-99.99,,,-99.99,,2013-02-24 03:52:00,
2013-02-23 20:01:00,37.0,28.0,-100.00,ENE,72,3.0,4.0,69,-99.99,,,-99.99,,2013-02-24 04:01:00,
2013-02-23 20:11:00,38.0,25.0,-100.00,NE,43,2.0,3.0,58,-99.99,,,-99.99,,2013-02-24 04:11:00,
2013-02-23 20:21:00,36.0,24.0,-100.00,East,92,3.0,5.0,62,-99.99,,,-99.99,,2013-02-24 04:21:00,
2013-02-23 20:31:00,37.0,19.0,-100.00,East,88,1.0,4.0,47,-99.99,,,-99.99,,2013-02-24 04:31:00,
2013-02-23 20:41:00,36.0,21.0,-100.00,East,92,3.0,5.0,53,-99.99,,,-99.99,,2013-02-24 04:41:00,
2013-02-23 20:51:00,36.0,20.0,-100.00,East,93,4.0,6.0,52,-99.99,,,-99.99,,2013-02-24 04:51:00,
2013-02-23 21:01:00,36.0,22.0,-100.00,East,96,4.0,6.0,56,-99.99,,,-99.99,,2013-02-24 05:01:00,
2013-02-23 21:11:00,35.0,23.0,-100.00,East,84,4.0,6.0,61,-99.99,,,-99.99,,2013-02-24 05:11:00,
2013-02-23 21:21:00,36.0,22.0,-100.00,East,81,4.0,5.0,56,-99.99,,,-99.99,,2013-02-24 05:21:00,
2013-02-23 21:32:00,36.0,22.0,-100.00,ENE,72,6.0,9.0,56,-99.99,,,-99.99,,2013-02-24 05:32:00,
2013-02-23 21:41:00,38.0,24.0,-100.00,ENE,67,6.0,9.0,56,-99.99,,,-99.99,,2013-02-24 05:41:00,
2013-02-23 21:52:00,37.0,24.0,-100.00,ENE,71,7.0,10.0,58,-99.99,,,-99.99,,2013-02-24 05:52:00,
2013-02-23 22:01:00,38.0,23.0,-100.00,ENE,60,8.0,10.0,55,-99.99,,,-99.99,,2013-02-24 06:01:00,
2013-02-23 22:11:00,38.0,24.0,-100.00,East,81,7.0,12.0,56,-99.99,,,-99.99,,2013-02-24 06:11:00,
2013-02-23 22:21:00,36.0,24.0,-100.00,East,87,7.0,10.0,62,-99.99,,,-99.99,,2013-02-24 06:21:00,
2013-02-23 22:31:00,36.0,24.0,-100.00,East,79,7.0,9.0,62,-99.99,,,-99.99,,2013-02-24 06:31:00,
2013-02-23 22:41:00,36.0,23.0,-100.00,East,85,6.0,7.0,58,-99.99,,,-99.99,,2013-02-24 06:41:00,
2013-02-23 22:52:00,35.0,22.0,-100.00,East,89,6.0,8.0,59,-99.99,,,-99.99,,2013-02-24 06:52:00,
2013-02-23 23:01:00,36.0,21.0,-100.00,East,91,6.0,8.0,55,-99.99,,,-99.99,,2013-02-24 07:01:00,
2013-02-23 23:11:00,36.0,21.0,-100.00,East,83,6.0,7.0,53,-99.99,,,-99.99,,2013-02-24 07:11:00,
2013-02-23 23:21:00,36.0,21.0,-100.00,East,84,5.0,7.0,54,-99.99,,,-99.99,,2013-02-24 07:21:00,
2013-02-23 23:31:00,36.0,21.0,-100.00,ENE,75,5.0,7.0,55,-99.99,,,-99.99,,2013-02-24 07:31:00,
2013-02-23 23:41:00,34.0,22.0,-100.00,East,93,5.0,6.0,62,-99.99,,,-99.99,,2013-02-24 07:41:00,
2013-02-23 23:51:00,34.0,22.0,-100.00,East,82,6.0,8.0,62,-99.99,,,-99.99,,2013-02-24 07:51:00,